Погода в Международном аэропорте Морис Бишоп

Гренада     12°05′49″N   61°40′59″W
темп.,
°C
ветер,
м/с
пор.,
м/с
влажн.,
%
обл.,
%
осадки,
мм/ч
давл.,
гПа
погр.,
м
11 мая, вт
вт1123:00+26всв710805 0.0 1016883
02:00+25всв610815 0.1 1014703
05:00+26в6107710 0.1 1014793
08:00+26в710761 0.1 1016968
11:00+27в710715 0.1 10161068
14:00+27в786764 0.1 10141006
17:00+26всв6873100 0.0 1013866
20:00+26всв6976100 0.0 1015777
12 мая, ср
ср1223:00+25всв68755 0.0 1016855
02:00+25в69740 0.0 1014815
05:00+25в697458 0.0 1015870
08:00+26в610725 0.0 1016999
11:00+27в797023 0.0 1016995
14:00+27в797315 0.1 1014988
17:00+27в687643 0.1 1013986
20:00+25всв6108527 0.4 1015741
13 мая, чт
чт1323:00+26в69816 0.3 1016770
02:00+25всв6108461 0.6 1014766
05:00+26в6978100 0.1 1015826
08:00+26в798126 0.7 1016859
11:00+27вюв78701 0.1 10161077
14:00+27вюв686896 0.1 1014992
17:00+27в5770100 0.0 1013845
20:00+25в5878100 0.0 1015620
14 мая, пт
пт1423:00+25в6979100 0.0 1015707
02:00+25вюв6882100 0.2 1014772
05:00+26вюв6876100 0.1 1015820
08:00+27вюв6776100 0.1 1016945
11:00+28вюв677354 0.0 1016993
14:00+27вюв6773100 0.1 1014998
17:00+27вюв587887 0.1 1013843
20:00+26в688039 0.1 1014783
15 мая, сб
сб1523:00+26в697986 0.0 1015878
02:00+26вюв797839 0.2 1014899
05:00+25вюв68765 0.0 1014860
08:00+27вюв687310 0.0 1015985
11:00+28вюв68734 0.1 1015988
14:00+28в68737 0.2 1013945
17:00+26в688020 0.1 1013825
20:00+26в710815 0.3 1014827